This is the latest recevied weather packets stored in our database for station/object KM4RT-13. If no packets are shown the sender has not sent any weather packets the latest 10 day(s).
| Time | Temp. | Humidity | Pressure | Rain* | Wind** | Luminosity | Snow |
|---|---|---|---|---|---|---|---|
| 1777661461 | 17.78° C | 50% | 1014.4 hPa | 0 mm | - | 469 W/m² | - |
| 1777661157 | 17.22° C | 51% | 1014.5 hPa | 0 mm | - | 530 W/m² | - |
| 1777660853 | 17.78° C | 50% | 1014.8 hPa | 0 mm | - | 488 W/m² | - |
| 1777660550 | 17.22° C | 51% | 1014.9 hPa | 0 mm | - | 476 W/m² | - |
| 1777660246 | 17.78° C | 51% | 1014.7 hPa | 0 mm | - | 330 W/m² | - |
| 1777659943 | 17.22° C | 50% | 1014.8 hPa | 0 mm | - | 313 W/m² | - |
| 1777659640 | 17.22° C | 53% | 1014.8 hPa | 0 mm | - | 352 W/m² | - |
| 1777659337 | 17.22° C | 54% | 1014.8 hPa | 0 mm | - | 411 W/m² | - |
| 1777659033 | 17.78° C | 52% | 1015 hPa | 0 mm | - | 497 W/m² | - |
| 1777658732 | 17.22° C | 53% | 1014.7 hPa | 0 mm | - | 586 W/m² | - |
| 1777658427 | 17.78° C | 50% | 1014.6 hPa | 0 mm | - | 559 W/m² | - |
| 1777658124 | 17.22° C | 53% | 1014.9 hPa | 0 mm | - | 554 W/m² | - |
| 1777657821 | 17.22° C | 54% | 1014.7 hPa | 0 mm | - | 645 W/m² | - |
| 1777657518 | 17.22° C | 50% | 1014.5 hPa | 0 mm | - | 574 W/m² | - |
| 1777657216 | 17.22° C | 54% | 1014.6 hPa | 0 mm | - | 456 W/m² | - |
| 1777656913 | 17.22° C | 54% | 1015.1 hPa | 0 mm | - | 512 W/m² | - |
| 1777656610 | 17.22° C | 53% | 1014.8 hPa | 0 mm | - | 496 W/m² | - |
| 1777656305 | 17.22° C | 56% | 1014.8 hPa | 0 mm | - | 498 W/m² | - |
| 1777656001 | 17.22° C | 55% | 1014.5 hPa | 0 mm | - | 451 W/m² | - |
| 1777655696 | 17.22° C | 58% | 1014.7 hPa | 0 mm | - | 481 W/m² | - |
| 1777655394 | 16.67° C | 60% | 1014.7 hPa | 0 mm | - | 590 W/m² | - |
| 1777655090 | 17.22° C | 57% | 1014.8 hPa | 0 mm | - | 523 W/m² | - |
| 1777654788 | 17.22° C | 60% | 1014.7 hPa | 0 mm | - | 583 W/m² | - |
| 1777654485 | 17.22° C | 59% | 1014.8 hPa | 0 mm | - | 759 W/m² | - |
| 1777654183 | 17.22° C | 57% | 1014.7 hPa | 0 mm | - | 755 W/m² | - |
* Rain latest hour (hover to see other rain measurements)
** Current wind speed in m/s (hover to see current wind gust speed)